TimeCDT,TemperatureF,Dew PointF,Humidity,Sea Level PressureIn,VisibilityMPH,Wind Direction,Wind SpeedMPH,Gust SpeedMPH,PrecipitationIn,Events,Conditions,WindDirDegrees,DateUTC
12:53 AM,68.0,50.0,52,29.95,10.0,South,11.5,-,N/A,,Clear,170,2012-10-04 05:53:00
1:53 AM,69.1,50.0,51,29.95,10.0,South,11.5,-,N/A,,Clear,180,2012-10-04 06:53:00
2:53 AM,69.1,51.1,53,29.97,10.0,South,11.5,-,N/A,,Clear,180,2012-10-04 07:53:00
3:53 AM,68.0,50.0,52,29.97,10.0,South,10.4,-,N/A,,Clear,170,2012-10-04 08:53:00
4:53 AM,66.9,51.1,57,29.99,10.0,South,11.5,-,N/A,,Clear,170,2012-10-04 09:53:00
5:53 AM,64.9,52.0,63,30.04,10.0,Calm,Calm,-,N/A,,Clear,0,2012-10-04 10:53:00
6:53 AM,62.1,53.1,72,30.05,10.0,SSE,5.8,-,N/A,,Clear,160,2012-10-04 11:53:00
7:53 AM,63.0,53.1,70,30.10,10.0,North,4.6,-,N/A,,Clear,10,2012-10-04 12:53:00
8:53 AM,66.0,53.1,63,30.12,10.0,ENE,3.5,-,N/A,,Partly Cloudy,60,2012-10-04 13:53:00
9:53 AM,69.1,54.0,58,30.12,10.0,ESE,3.5,-,N/A,,Overcast,120,2012-10-04 14:53:00
10:53 AM,66.0,53.1,63,30.15,10.0,NNW,9.2,18.4,N/A,,Overcast,340,2012-10-04 15:53:00
11:53 AM,63.0,46.9,56,30.18,10.0,North,11.5,19.6,N/A,,Overcast,360,2012-10-04 16:53:00
12:53 PM,64.0,46.9,54,30.18,10.0,Variable,5.8,16.1,N/A,,Overcast,0,2012-10-04 17:53:00
1:53 PM,64.9,46.9,52,30.16,10.0,North,8.1,-,N/A,,Overcast,10,2012-10-04 18:53:00
2:53 PM,64.9,46.9,52,30.15,10.0,Variable,4.6,-,N/A,,Overcast,0,2012-10-04 19:53:00
3:53 PM,66.0,46.9,50,30.15,10.0,North,6.9,-,N/A,,Overcast,10,2012-10-04 20:53:00
4:22 PM,66.2,46.4,49,30.16,10.0,North,4.6,-,N/A,,Overcast,10,2012-10-04 21:22:00
4:53 PM,66.0,46.9,50,30.15,10.0,NNE,5.8,-,N/A,,Overcast,30,2012-10-04 21:53:00
5:53 PM,66.0,48.0,52,30.14,10.0,Variable,4.6,-,N/A,,Overcast,0,2012-10-04 22:53:00
6:53 PM,64.9,48.0,54,30.15,10.0,North,8.1,-,N/A,,Overcast,10,2012-10-04 23:53:00
7:53 PM,64.0,46.9,54,30.16,10.0,NNE,6.9,-,N/A,,Overcast,30,2012-10-05 00:53:00
8:53 PM,62.1,44.1,52,30.17,10.0,NNE,8.1,-,N/A,,Overcast,30,2012-10-05 01:53:00
9:31 PM,60.8,42.8,52,30.17,10.0,NNE,6.9,-,N/A,,Overcast,30,2012-10-05 02:31:00
9:40 PM,60.8,42.8,52,30.18,10.0,North,6.9,-,N/A,,Overcast,10,2012-10-05 02:40:00
9:53 PM,59.0,43.0,55,30.17,10.0,North,4.6,-,N/A,,Overcast,10,2012-10-05 02:53:00
10:53 PM,59.0,44.1,58,30.18,10.0,NNE,5.8,-,N/A,,Overcast,30,2012-10-05 03:53:00
11:24 PM,59.0,44.6,59,30.19,10.0,NNE,6.9,-,N/A,,Overcast,30,2012-10-05 04:24:00
11:53 PM,57.9,44.1,60,30.18,10.0,NNE,6.9,-,N/A,,Overcast,20,2012-10-05 04:53:00